Regional Weather Roundup
Issued by NWS

Home | Current Version | Previous Version | Text Only | Print | Product List | Glossary On
Versions: 1 2 3 4 5 6 7 8 9 10 11 12 13 14 15 16 17 18 19 20 21 22 23 24 25 26 27 28
000
ASUS44 KLIX 240511
RWRLA
LOUISIANA WEATHER ROUNDUP
NATIONAL WEATHER SERVICE NEW ORLEANS LA
1200 AM CDT SUN JUL 24 2016

NOTE: "FAIR" INDICATES FEW OR NO CLOUDS BELOW 12,000 FEET WITH NO
      SIGNIFICANT WEATHER AND/OR OBSTRUCTIONS TO VISIBILITY.
      SKY/WX - SKY CONDITION AND SIGNIFICANT WEATHER.
      TMP - AIR TEMPERATURE.    DP   - DEWPOINT TEMPERATURE.
      RH  - RELATIVE HUMIDITY.  PRES - PRESSURE.
      HX  - HEAT INDEX.         WCI  - WIND CHILL INDEX.

*  THESE STATIONS ARE NOT NWS OR FAA STATIONS AND ARE NOT UNDER
   NWS QUALITY CONTROL.

LAZ040-048-061>063-065-066-069-240600-
SOUTHEAST LOUISIANA

CITY           SKY/WX    TMP DP  RH WIND       PRES   REMARKS
N.O. AUDUBON     N/A     84  78  82 MISG        N/A  HX  95
N.O. INTL ARPT CLOUDY    85  76  74 CALM      29.97F
N.O. LAKEFRONT CLOUDY    83  72  69 S5        29.97F
N.O. DOWNTOWN* FAIR      86  76  71 VRB3      29.98F HX  96
RESERVE*       FAIR      77  75  93 CALM      29.98F
SLIDELL        MOCLDY    80  78  94 CALM      29.97F
BATON ROUGE    CLOUDY    78  75  90 CALM      29.97F
BOOTHVILLE     PTCLDY    82  78  88 S3        29.99F
BELLE CHASSE   CLOUDY    78  77  96 CALM      29.97F
BOGALUSA*      FAIR      79  75  87 CALM      29.99F
GALLIANO*      PTCLDY    72  72  99 CALM      29.98F
NEW ROADS*     FAIR      78  75  91 SE3       29.96F
GONZALES*      FAIR      76  76 100 CALM      29.96F
HAMMOND*       CLOUDY    77  72  83 CALM      29.97F
HOUMA*         CLOUDY    79  78  96 CALM      29.98F
PORT FOURCHON* CLEAR     86  75  70 SW5       29.98F HX  95

$$

LAZ041-044-053-054-240600-
SOUTHWEST LOUISIANA

CITY           SKY/WX    TMP DP  RH WIND       PRES   REMARKS
LAKE CHARLES   PTCLDY    81  76  84 S5        29.95F
LAFAYETTE      CLEAR     83  78  85 S7        29.97S
PATTERSON      PTCLDY    79  78  97 CALM      29.98F
SALT POINT       N/A     84  76  76 CALM      29.96S
NEW IBERIA     CLEAR     81  77  88 SW3       29.97F
CHENAULT AIRPK PTCLDY    78  76  93 S3        29.95F

$$

LAZ027-028-240600-
CENTRAL LOUISIANA

CITY           SKY/WX    TMP DP  RH WIND       PRES   REMARKS
FORT POLK      CLEAR     83  77  82 S6        29.95F
ALEXANDRIA INT PTCLDY    81  77  88 S5        29.93F
ALEXANDRIA     PTCLDY    80  78  94 CALM      29.95F

$$

LAZ001-002-240600-
NORTHWEST LOUISIANA

CITY           SKY/WX    TMP DP  RH WIND       PRES   REMARKS
SHREVEPORT     CLOUDY    78  77  96 CALM      29.93S
BARKSDALE AFB  MOCLDY    78  75  89 CALM      29.94R
DTN SHREVEPORT CLOUDY    78  75  90 CALM      29.94R

$$

LAZ014-016-240600-
NORTHEAST LOUISIANA

CITY           SKY/WX    TMP DP  RH WIND       PRES   REMARKS
MONROE         CLOUDY    77  74  90 SW3       29.95S
TALLULAH       PTCLDY    77  73  87 S3        29.94F

$$





USA.gov is the U.S. government's official web portal to all federal, state and local government web resources and services.